Regional Weather Roundup
Issued by NWS Little Rock, AR

Home | Current Version | Previous Version | Graphics & Text | Print | Product List | Glossary On
Versions: 1 2 3 4 5 6 7 8 9 10 11 12 13 14 15 16 17 18 19 20 21 22 23 24 25 26 27 28 29 30 31 32 33 34 35 36 37 38 39 40 41 42 43 44 45 46 47 48 49 50
000
ASUS44 KLZK 291105
RWRLZK

WEATHER ROUNDUP FOR ARKANSAS
NATIONAL WEATHER SERVICE LITTLE ROCK AR
600 AM CDT FRI JUL 29 2016

NOTE: "FAIR" INDICATES FEW OR NO CLOUDS BELOW 12,000 FEET WITH NO
SIGNIFICANT WEATHER AND/OR OBSTRUCTIONS TO VISIBILITY.

ARZ001-003-010-029-291200-
NORTHWEST ARKANSAS

CITY           SKY/WX    TMP DP  RH WIND       PRES   REMARKS
FAYETTEVILLE   CLEAR     72  72 100 SW3       29.96R
FORT SMITH     CLEAR     78  72  81 SW5       29.92R
HARRISON       CLEAR     70  69  97 SE3       29.95R
BENTONVILLE    CLEAR     73  70  88 CALM      29.98R
ROGERS         PTCLDY    73  72  96 W5        29.98R
SILOAM SPGS    CLEAR     72  64  78 CALM      29.98R
HIGHFILL       CLEAR     75  74  96 W8        29.97R
SPRINGDALE     PTCLDY    75  75 100 W5        29.98
$$

ARZ004-005-016-291200-
NORTH CENTRAL ARKANSAS

CITY           SKY/WX    TMP DP  RH WIND       PRES   REMARKS
BATESVILLE     CLOUDY    75  73  94 S5        29.92S
FLIPPIN        MOCLDY    72  66  83 CALM      29.91R
MTN HOME       CLEAR     69  68  96 CALM      29.92S
$$

ARZ040-041-291200-
WEST CENTRAL ARKANSAS

CITY           SKY/WX    TMP DP  RH WIND       PRES   REMARKS
MENA             N/A    N/A N/A N/A MISG        N/A
MOUNT IDA      CLEAR     73  73 100 CALM      29.94R
$$

ARZ009-017-025-026-028-291200-
NORTHEAST ARKANSAS

CITY           SKY/WX    TMP DP  RH WIND       PRES   REMARKS
CORNING          N/A     72  72 100 W3        29.92R
JONESBORO      CLOUDY    77  75  93 SW9       29.91S
NEWPORT        CLOUDY    76  76 100 S9        29.92S
WALNUT RIDGE   CLOUDY    73  70  88 N3        29.91R
BLYTHEVILLE    CLOUDY    76  74  93 SW7       29.93R
$$

ARZ022-023-033-042-044-291200-
CENTRAL ARKANSAS

CITY           SKY/WX    TMP DP  RH WIND       PRES   REMARKS
LITTLE ROCK    CLOUDY    76  72  87 SW8       29.93F
JACKSONVILLE   MOCLDY    74  74  99 S5        29.92F
SEARCY         CLOUDY    74  74 100 S8        29.93F
HOT SPRINGS    CLOUDY    74  72  93 SW8       29.97R
RUSSELLVILLE   CLEAR     75  74  96 CALM      29.90F
$$

ARZ036-291200-
EAST ARKANSAS

CITY           SKY/WX    TMP DP  RH WIND       PRES   REMARKS
WEST MEMPHIS   CLOUDY    74  73  97 S8        29.94S FOG
$$

ARZ050-053-066-070-073-291200-
SOUTHWEST ARKANSAS

CITY           SKY/WX    TMP DP  RH WIND       PRES   REMARKS
ARKADELPHIA    CLOUDY    73  72  96 SW7       29.97S
CAMDEN         CLOUDY    72  68  88 S3        29.98S
TEXARKANA      CLEAR     72  71  97 S8        29.98F
EL DORADO      CLOUDY    71  71 100 S7        29.99S
DE QUEEN       CLOUDY    74  73  97 S6        29.95S FOG
$$

ARZ056-057-069-291200-
SOUTHEAST ARKANSAS

CITY           SKY/WX    TMP DP  RH WIND       PRES   REMARKS
PINE BLUFF     CLOUDY    73  71  93 SW12      29.96F
STUTTGART      CLOUDY    73  70  88 S10       29.95F
MONTICELLO     CLOUDY    74  71  91 SW5       29.98F

$$





USA.gov is the U.S. government's official web portal to all federal, state and local government web resources and services.